Weather History for Baker, MT

Change the Weather History Date:

Monday, January 27, 2014

  Actual Average Record
Temperature  
Mean Temperature 2 °F -  
Max Temperature 8 °F 32 °F 44 °F (2008)
Min Temperature -5 °F -2 °F -18 °F (2004)
Degree Days  
Heating Degree Days 64    
Moisture  
Dew Point -9 °F    
Average Humidity 67    
Maximum Humidity 80    
Minimum Humidity 46    
Precipitation  
Precipitation 0.00 in - - ()
Sea Level Pressure  
Sea Level Pressure 30.49 in    
Wind  
Wind Speed 10 mph (NW)    
Max Wind Speed 16 mph    
Max Gust Speed 23 mph    
Visibility 10 miles    
Events      
Averages and records for this station are not official NWS values.
T = Trace of Precipitation, MM = Missing Value Source: NWS Daily Summary

Daily Weather History Graph

Daily Weather History Graph

Search for Another Location

Airport:

Trip Planner

Search our weather history database for the weather conditions in past years. The results will help you decide how hot, cold, wet, or windy it might be!

Date:

Astronomy

Jan. 27, 2014 Rise Set
Actual Time 7:25 AM MST 4:54 PM MST
Civil Twilight 6:53 AM MST 5:26 PM MST
Nautical Twilight 6:16 AM MST 6:03 PM MST
Astronomical Twilight 5:41 AM MST 6:38 PM MST
Moon 4:12 AM MST (1/27) 1:40 PM MST (1/27)
Length of Visible Light 10h 33m
Length of Day
9h 28m
Waning Crescent, 14% of the Moon is Illuminated
Jan 27
Waning Crescent
Jan 30
New
Feb 6
First Quarter
Feb 14
Full
Feb 22
Last Quarter

Hourly Weather History & Observations

Time (MST) Temp. Windchill Dew Point Humidity Pressure Visibility Wind Dir Wind Speed Gust Speed Precip Events Conditions
12:51 AM -2.9 °F -22.4 °F -9.9 °F 72% 30.49 in 10.0 mi NW 13.8 mph - N/A   Clear
1:51 AM -4.0 °F -20.2 °F -11.0 °F 72% 30.49 in 10.0 mi NNW 9.2 mph - N/A   Clear
2:51 AM -4.0 °F -16.3 °F -9.9 °F 76% 30.50 in 10.0 mi NW 5.8 mph - N/A   Clear
3:51 AM -4.0 °F -16.3 °F -9.9 °F 76% 30.51 in 10.0 mi NW 5.8 mph - N/A   Overcast
4:51 AM -4.0 °F -16.3 °F -9.9 °F 76% 30.50 in 10.0 mi WNW 5.8 mph - N/A   Overcast
5:51 AM -4.0 °F -16.3 °F -9.9 °F 76% 30.50 in 10.0 mi NW 5.8 mph - N/A   Partly Cloudy
6:51 AM -5.1 °F -20.4 °F -9.9 °F 80% 30.51 in 10.0 mi NW 8.1 mph - N/A   Clear
7:51 AM -5.1 °F -20.4 °F -11.0 °F 76% 30.51 in 10.0 mi WNW 8.1 mph - N/A   Clear
8:51 AM -2.0 °F -16.6 °F -9.9 °F 69% 30.52 in 10.0 mi WNW 8.1 mph - N/A   Clear
9:51 AM 1.0 °F -16.6 °F -9.9 °F 60% 30.51 in 10.0 mi NW 12.7 mph 23.0 mph N/A   Clear
10:51 AM 3.0 °F -14.8 °F -8.0 °F 60% 30.52 in 10.0 mi NW 13.8 mph - N/A   Clear
11:51 AM 5.0 °F -13.6 °F -8.0 °F 55% 30.49 in 10.0 mi NW 16.1 mph - N/A   Clear
12:51 PM 6.1 °F -10.9 °F -9.0 °F 50% 30.47 in 10.0 mi NW 13.8 mph - N/A   Clear
1:51 PM 7.0 °F -11.0 °F -8.0 °F 51% 30.45 in 10.0 mi NW 16.1 mph - N/A   Clear
2:51 PM 8.1 °F -7.0 °F -9.0 °F 46% 30.46 in 10.0 mi NW 11.5 mph - N/A   Clear
3:51 PM 7.0 °F -10.4 °F -9.9 °F 46% 30.48 in 10.0 mi NW 15.0 mph - N/A   Clear
4:51 PM 3.9 °F -13.7 °F -8.0 °F 58% 30.49 in 10.0 mi NW 13.8 mph - N/A   Clear
5:51 PM 3.0 °F -14.1 °F -8.0 °F 60% 30.50 in 10.0 mi NW 12.7 mph - N/A   Clear
6:51 PM 1.9 °F -15.5 °F -7.1 °F 66% 30.51 in 10.0 mi NW 12.7 mph - N/A   Clear
7:51 PM 1.0 °F -14.9 °F -7.1 °F 69% 30.53 in 10.0 mi NW 10.4 mph - N/A   Clear
8:51 PM 1.0 °F -12.9 °F -7.1 °F 69% 30.51 in 10.0 mi WNW 8.1 mph - N/A   Mostly Cloudy
9:49 PM -0.4 °F -13.4 °F -5.8 °F 78% 30.29 in 10.0 mi WNW 6.9 mph - N/A   Scattered Clouds
9:51 PM -0.0 °F -13.0 °F -6.0 °F 76% 30.50 in 10.0 mi WNW 6.9 mph - N/A   Scattered Clouds
10:51 PM -0.9 °F -16.4 °F -7.1 °F 75% 30.50 in 10.0 mi West 9.2 mph - N/A   Clear
11:51 PM -0.9 °F -17.4 °F -7.1 °F 75% 30.48 in 10.0 mi West 10.4 mph - N/A   Clear